Mora, MN

11:33 PM CDT on August 18, 2017 (GMT -0500)
Mora Municipal

Weather History for KJMR - January, 2014

Change the Weather History Date:

Sunday, January 12, 2014

  Actual Average Record
Temperature  
Mean Temperature 27 °F -  
Max Temperature 35 °F 18 °F 43 °F (1958)
Min Temperature 19 °F -5 °F -37 °F (1977)
Degree Days  
Heating Degree Days 38    
Moisture  
Dew Point 25 °F    
Average Humidity 84    
Maximum Humidity 93    
Minimum Humidity 75    
Precipitation  
Precipitation 0.00 in - - ()
Sea Level Pressure  
Sea Level Pressure 29.43 in    
Wind  
Wind Speed 4 mph (SSW)    
Max Wind Speed 8 mph    
Max Gust Speed -    
Visibility 9 miles    
Events      
Averages and records for this station are not official NWS values.
T = Trace of Precipitation, MM = Missing Value Source: NWS Daily Summary

Daily Weather History Graph

Daily Weather History Graph

Search for Another Location

Airport or City:

Trip Planner

Search our weather history database for the weather conditions in past years. The results will help you decide how hot, cold, wet, or windy it might be!

Date:

Astronomy

Jan. 12, 2014 Rise Set
Actual Time 7:52 AM CST 4:51 PM CST
Civil Twilight 7:18 AM CST 5:24 PM CST
Nautical Twilight 6:41 AM CST 6:01 PM CST
Astronomical Twilight 6:05 AM CST 6:37 PM CST
Moon 2:20 PM CST (1/12) 4:50 AM CST (1/12)
Length of Visible Light 10h 06m
Length of Day
8h 58m
Waxing Gibbous, 90% of the Moon is Illuminated
Jan 12
Waxing Gibbous
Jan 15
Full
Jan 23
Last Quarter
Jan 30
New
Feb 6
First Quarter

Hourly Weather History & Observations

Time (CST) Temp. Windchill Dew Point Humidity Pressure Visibility Wind Dir Wind Speed Gust Speed Precip Events Conditions
12:13 AM 19.4 °F 14.3 °F 17.6 °F 93% 29.60 in 5.0 mi South 3.5 mph - N/A   Overcast
12:33 AM 19.4 °F - 17.6 °F 93% 29.58 in 5.0 mi Calm Calm - N/A   Overcast
12:53 AM 19.4 °F - 17.6 °F 93% 29.57 in 5.0 mi Calm Calm - N/A   Overcast
1:13 AM 19.4 °F 14.3 °F 17.6 °F 93% 29.56 in 5.0 mi South 3.5 mph - N/A   Mostly Cloudy
1:33 AM 19.4 °F 12.8 °F 17.6 °F 93% 29.55 in 5.0 mi South 4.6 mph - N/A   Scattered Clouds
1:53 AM 21.2 °F 14.9 °F 19.4 °F 93% 29.55 in 7.0 mi South 4.6 mph - N/A   Scattered Clouds
2:13 AM 21.2 °F 16.4 °F 19.4 °F 93% 29.53 in 7.0 mi SSE 3.5 mph - N/A   Mostly Cloudy
2:33 AM 21.2 °F 16.4 °F 19.4 °F 93% 29.53 in 7.0 mi South 3.5 mph - N/A   Overcast
2:53 AM 23.0 °F - 21.2 °F 93% 29.52 in 7.0 mi Calm Calm - N/A   Overcast
3:13 AM 23.0 °F 18.4 °F 21.2 °F 93% 29.52 in 7.0 mi SSE 3.5 mph - N/A   Overcast
3:33 AM 23.0 °F 18.4 °F 21.2 °F 93% 29.50 in 7.0 mi SE 3.5 mph - N/A   Overcast
3:53 AM 24.8 °F 19.1 °F 23.0 °F 93% 29.49 in 7.0 mi ESE 4.6 mph - N/A   Overcast
4:13 AM 23.0 °F 18.4 °F 21.2 °F 93% 29.47 in 7.0 mi ESE 3.5 mph - N/A   Overcast
4:33 AM 23.0 °F 17.0 °F 21.2 °F 93% 29.45 in 5.0 mi SE 4.6 mph - N/A   Scattered Clouds
4:53 AM 24.8 °F 20.5 °F 23.0 °F 93% 29.43 in 5.0 mi ESE 3.5 mph - N/A   Mostly Cloudy
5:13 AM 24.8 °F 19.1 °F 23.0 °F 93% 29.43 in 7.0 mi ESE 4.6 mph - N/A   Overcast
5:33 AM 24.8 °F 17.9 °F 23.0 °F 93% 29.41 in 7.0 mi SE 5.8 mph - N/A   Mostly Cloudy
5:53 AM 24.8 °F 19.1 °F 23.0 °F 93% 29.40 in 7.0 mi SE 4.6 mph - N/A   Clear
6:13 AM 24.8 °F 19.1 °F 23.0 °F 93% 29.38 in 10.0 mi SE 4.6 mph - N/A   Mostly Cloudy
6:33 AM 26.6 °F 22.6 °F 23.0 °F 86% 29.38 in 10.0 mi SSE 3.5 mph - N/A   Overcast
6:53 AM 26.6 °F 22.6 °F 24.8 °F 93% 29.38 in 10.0 mi SSE 3.5 mph - N/A   Mostly Cloudy
7:13 AM 26.6 °F - 23.0 °F 86% 29.38 in 10.0 mi Calm Calm - N/A   Overcast
7:33 AM 26.6 °F 22.6 °F 23.0 °F 86% 29.38 in 10.0 mi South 3.5 mph - N/A   Overcast
7:53 AM 26.6 °F 22.6 °F 23.0 °F 86% 29.38 in 10.0 mi South 3.5 mph - N/A   Overcast
8:13 AM 28.4 °F 24.6 °F 23.0 °F 80% 29.37 in 10.0 mi SSE 3.5 mph - N/A   Overcast
8:33 AM 28.4 °F 24.6 °F 23.0 °F 80% 29.36 in 10.0 mi SE 3.5 mph - N/A   Mostly Cloudy
8:53 AM 30.2 °F 24.3 °F 24.8 °F 80% 29.33 in 10.0 mi SE 5.8 mph - N/A   Mostly Cloudy
9:13 AM 30.2 °F 26.7 °F 24.8 °F 80% 29.35 in 10.0 mi SSE 3.5 mph - N/A   Overcast
9:33 AM 30.2 °F 25.4 °F 24.8 °F 80% 29.38 in 10.0 mi South 4.6 mph - N/A   Overcast
9:53 AM 32.0 °F 25.6 °F 26.6 °F 80% 29.35 in 10.0 mi SSE 6.9 mph - N/A   Overcast
10:13 AM 32.0 °F 27.5 °F 26.6 °F 80% 29.37 in 10.0 mi South 4.6 mph - N/A   Mostly Cloudy
10:33 AM 32.0 °F 28.7 °F 26.6 °F 80% 29.37 in 10.0 mi SSW 3.5 mph - N/A   Overcast
10:53 AM 32.0 °F 28.7 °F 26.6 °F 80% 29.38 in 10.0 mi SW 3.5 mph - N/A   Overcast
11:13 AM 32.0 °F 27.5 °F 26.6 °F 80% 29.36 in 10.0 mi South 4.6 mph - N/A   Overcast
11:33 AM 32.0 °F 27.5 °F 26.6 °F 80% 29.35 in 10.0 mi South 4.6 mph - N/A   Overcast
11:53 AM 32.0 °F 26.4 °F 26.6 °F 80% 29.34 in 10.0 mi SSW 5.8 mph - N/A   Overcast
12:13 PM 33.8 °F 30.8 °F 26.6 °F 75% 29.36 in 10.0 mi WSW 3.5 mph - N/A   Overcast
12:33 PM 33.8 °F 30.8 °F 26.6 °F 75% 29.35 in 10.0 mi WSW 3.5 mph - N/A   Overcast
12:53 PM 33.8 °F 29.6 °F 26.6 °F 75% 29.34 in 10.0 mi SSW 4.6 mph - N/A   Overcast
1:13 PM 35.6 °F 29.2 °F 28.4 °F 75% 29.33 in 10.0 mi South 8.1 mph - N/A   Overcast
1:33 PM 35.6 °F 30.7 °F 28.4 °F 75% 29.34 in 10.0 mi South 5.8 mph - N/A   Overcast
1:53 PM 35.6 °F 29.9 °F 28.4 °F 75% 29.36 in 10.0 mi West 6.9 mph - N/A   Mostly Cloudy
2:13 PM 35.6 °F 32.8 °F 28.4 °F 75% 29.37 in 10.0 mi SW 3.5 mph - N/A   Scattered Clouds
2:33 PM 35.6 °F 32.8 °F 28.4 °F 75% 29.37 in 10.0 mi SW 3.5 mph - N/A   Mostly Cloudy
2:53 PM 35.6 °F 32.8 °F 28.4 °F 75% 29.38 in 10.0 mi SW 3.5 mph - N/A   Scattered Clouds
3:13 PM 35.6 °F 32.8 °F 28.4 °F 75% 29.38 in 10.0 mi SW 3.5 mph - N/A   Clear
3:33 PM 35.6 °F 31.7 °F 28.4 °F 75% 29.38 in 10.0 mi SSW 4.6 mph - N/A   Clear
3:53 PM 35.6 °F 31.7 °F 28.4 °F 75% 29.38 in 10.0 mi SW 4.6 mph - N/A   Clear
4:13 PM 35.6 °F 32.8 °F 30.2 °F 81% 29.39 in 10.0 mi SW 3.5 mph - N/A   Clear
4:33 PM 33.8 °F 28.6 °F 28.4 °F 81% 29.40 in 10.0 mi SSW 5.8 mph - N/A   Clear
4:53 PM 33.8 °F 29.6 °F 28.4 °F 81% 29.41 in 10.0 mi SSW 4.6 mph - N/A   Clear
5:13 PM 33.8 °F 27.7 °F 28.4 °F 81% 29.41 in 10.0 mi SSW 6.9 mph - N/A   Clear
5:33 PM 35.6 °F 31.7 °F 30.2 °F 81% 29.42 in 10.0 mi SW 4.6 mph - N/A   Clear
5:53 PM 35.6 °F 31.7 °F 30.2 °F 81% 29.43 in 10.0 mi WSW 4.6 mph - N/A   Clear
6:13 PM 35.6 °F 31.7 °F 30.2 °F 81% 29.43 in 10.0 mi West 4.6 mph - N/A   Clear
6:33 PM 33.8 °F 30.8 °F 28.4 °F 81% 29.43 in 10.0 mi WSW 3.5 mph - N/A   Clear
6:53 PM 33.8 °F - 28.4 °F 81% 29.43 in 10.0 mi Calm Calm - N/A   Clear
7:13 PM 33.8 °F 30.8 °F 28.4 °F 81% 29.43 in 10.0 mi West 3.5 mph - N/A   Clear
7:33 PM 33.8 °F 28.6 °F 28.4 °F 81% 29.44 in 10.0 mi West 5.8 mph - N/A   Clear
7:53 PM 33.8 °F 28.6 °F 28.4 °F 81% 29.45 in 10.0 mi West 5.8 mph - N/A   Clear
8:13 PM 33.8 °F 29.6 °F 28.4 °F 81% 29.45 in 10.0 mi West 4.6 mph - N/A   Clear
8:33 PM 33.8 °F 29.6 °F 28.4 °F 81% 29.45 in 10.0 mi West 4.6 mph - N/A   Clear
8:53 PM 33.8 °F 28.6 °F 28.4 °F 81% 29.46 in 10.0 mi West 5.8 mph - N/A   Clear
9:13 PM 33.8 °F 28.6 °F 28.4 °F 81% 29.46 in 10.0 mi West 5.8 mph - N/A   Clear
9:33 PM 33.8 °F 28.6 °F 28.4 °F 81% 29.46 in 10.0 mi West 5.8 mph - N/A   Clear
9:53 PM 32.0 °F 27.5 °F 28.4 °F 87% 29.47 in 10.0 mi West 4.6 mph - N/A   Clear
10:13 PM 32.0 °F 27.5 °F 26.6 °F 80% 29.47 in 10.0 mi WSW 4.6 mph - N/A   Clear
10:33 PM 32.0 °F 28.7 °F 26.6 °F 80% 29.47 in 10.0 mi West 3.5 mph - N/A   Clear
10:53 PM 32.0 °F 26.4 °F 26.6 °F 80% 29.49 in 10.0 mi West 5.8 mph - N/A   Clear
11:13 PM 32.0 °F 27.5 °F 26.6 °F 80% 29.48 in 10.0 mi West 4.6 mph - N/A   Clear
11:33 PM 32.0 °F 27.5 °F 26.6 °F 80% 29.48 in 10.0 mi West 4.6 mph - N/A   Clear
11:53 PM 30.2 °F 24.3 °F 26.6 °F 86% 29.48 in 10.0 mi West 5.8 mph - N/A   Clear